7 * 24
多渠道服务支持
STARLINK-37158(NORAD编号68343)是SpaceX星链星座的一员,属于低轨互联网通信卫星。星链计划旨在近地轨道部署数万颗卫星,为全球提供高速宽带互联网服务。该卫星配备先进相控阵天线与激光星间链路,可实现高速数据传输,支持流媒体、在线游戏等应用。采用氩气离子推进系统,具备轨道机动与脱轨能力,采用太阳能供电,保障可靠运行,助力星链实现全球覆盖的低延迟网络服务。
美国
(US)
| 数据来源 | 国际轨道数据 |
| 星历时间: | 2026-04-14T20:00:02+0800 5小时前 查看轨道信息 |
| 半长轴: | 6739.948km |
| 偏心率: | 0.0001415 |
| 轨道倾角: | 53.160° |
| 近地点辐角 | 57.327° |
| 升交点赤经 | 183.343° |
| 平近点角 | 122.121° |
| 近地点: | 360.857km |
| 远地点: | 362.765km |
| 周期: | 91.779分钟 |
| 每日圈数: | 15.689822 |